Location: Unspecified
(0.0000°N, 0.0000°E)
Time: 19:56:49

Vanguard 2 - Pass Details

Date: 11 December 2017
Orbit: 553 x 2939 km, 32.9° (Epoch: 23 March)

Event Time Altitude Azimuth Distance (km) Brightness Sun altitude
Rises 00:49:03 0° 297° (WNW) 3,570 - -63.3°
Reaches altitude 10° 00:51:11 10° 295° (WNW) 2,843 - -63.0°
Maximum altitude 00:58:13 68° 213° (SSW) 1,553 - -62.1°
Exits shadow 01:05:43 24° 136° (SE) 3,309 10.9 -61.0°
Drops below altitude 10° 01:10:23 10° 132° (SE) 4,722 11.8 -60.3°
Sets 01:15:00 0° 129° (SE) 6,073 12.6 -59.6°
